When you browse on this site, cookies collect data to enhance your experience and personalize the content and advertising you see.
Visit our Privacy Policy to learn more. By continuing to use the site, you agree to this use of cookies and data.
  • In United Kingdom
  • List of Countries
  • For 7 days
  • Water Temperature
  • Satellite Maps
  • Weather Map
  • Weather Widgets
  • user-avatar
    Login

    Hourly Weather Okoyo

    Today, 18 April, Thursday

    Time Temperature Precipitation Wind Pressure Humidity
    00:00 +28°C° 0 mm 1 mps 722 mmHg 70%
    01:00 +28°C° 0 mm 1 mps 722 mmHg 71%
    02:00 +28°C° 0.1 mm 1 mps 722 mmHg 74%
    03:00 +27°C° 0.1 mm 2 mps 722 mmHg 77%
    04:00 +27°C° 0.1 mm 2 mps 722 mmHg 80%
    05:00 +27°C° 0.1 mm 2 mps 723 mmHg 80%
    06:00 +27°C° 0.1 mm 2 mps 723 mmHg 80%
    07:00 +28°C° 0 mm 2 mps 723 mmHg 77%
    08:00 +30°C° 0.1 mm 2 mps 723 mmHg 69%
    09:00 +32°C° 0.1 mm 2 mps 723 mmHg 60%
    10:00 +35°C° 0.1 mm 2 mps 724 mmHg 51%
    11:00 +36°C° 0 mm 2 mps 723 mmHg 49%
    12:00 +36°C° 0 mm 2 mps 722 mmHg 47%
    13:00 +36°C° 0 mm 2 mps 722 mmHg 45%
    14:00 +35°C° 0 mm 1 mps 722 mmHg 46%
    15:00 +35°C° 0 mm 1 mps 721 mmHg 46%
    16:00 +35°C° 0 mm 1 mps 721 mmHg 46%
    17:00 +34°C° 0 mm 1 mps 721 mmHg 50%
    18:00 +33°C° 0 mm 1 mps 721 mmHg 54%
    19:00 +31°C° 0 mm 1 mps 721 mmHg 57%
    20:00 +30°C° 0.1 mm 1 mps 721 mmHg 62%
    21:00 +30°C° 0.1 mm 1 mps 722 mmHg 67%
    22:00 +29°C° 0.1 mm 1 mps 722 mmHg 71%
    23:00 +28°C° 0.3 mm 1 mps 722 mmHg 74%

    Tomorrow, 19 April, Friday

    Time Temperature Precipitation Wind Pressure Humidity
    00:00 +28°C° 0.3 mm 2 mps 722 mmHg 77%
    01:00 +28°C° 0.3 mm 2 mps 723 mmHg 80%
    02:00 +27°C° 0.1 mm 2 mps 722 mmHg 82%
    03:00 +27°C° 0.1 mm 2 mps 722 mmHg 84%
    04:00 +26°C° 0.1 mm 3 mps 722 mmHg 86%
    05:00 +26°C° 2 mm 3 mps 723 mmHg 86%
    06:00 +26°C° 2 mm 2 mps 723 mmHg 87%
    07:00 +26°C° 2 mm 2 mps 724 mmHg 87%
    08:00 +27°C° 1.6 mm 2 mps 724 mmHg 86%
    09:00 +27°C° 1.6 mm 1 mps 725 mmHg 86%
    10:00 +25°C° 1.6 mm 0 mps 725 mmHg 85%
    11:00 +29°C° 0.1 mm 1 mps 725 mmHg 78%
    12:00 +30°C° 0.1 mm 1 mps 724 mmHg 71%
    13:00 +31°C° 0.1 mm 2 mps 723 mmHg 63%
    14:00 +32°C° 0 mm 1 mps 723 mmHg 59%
    15:00 +33°C° 0 mm 1 mps 723 mmHg 55%
    16:00 +34°C° 0 mm 1 mps 722 mmHg 51%
    17:00 +32°C° 0 mm 1 mps 722 mmHg 57%
    18:00 +31°C° 0 mm 1 mps 722 mmHg 62%
    19:00 +29°C° 0 mm 1 mps 722 mmHg 67%
    20:00 +29°C° 0 mm 1 mps 722 mmHg 69%
    21:00 +28°C° 0 mm 1 mps 722 mmHg 71%
    22:00 +28°C° 0 mm 2 mps 722 mmHg 73%
    23:00 +27°C° 0 mm 2 mps 722 mmHg 75%

    Day after tomorrow, 20 April, Saturday

    Time Temperature Precipitation Wind Pressure Humidity
    00:00 +27°C° 0 mm 2 mps 723 mmHg 77%
    01:00 +27°C° 0 mm 2 mps 723 mmHg 79%
    02:00 +26°C° 0.2 mm 2 mps 722 mmHg 82%
    03:00 +26°C° 0.2 mm 2 mps 722 mmHg 86%
    04:00 +25°C° 0.2 mm 2 mps 722 mmHg 89%
    05:00 +26°C° 0 mm 2 mps 723 mmHg 88%
    06:00 +26°C° 0 mm 2 mps 723 mmHg 86%
    07:00 +27°C° 0 mm 2 mps 723 mmHg 85%
    08:00 +27°C° 0.1 mm 2 mps 724 mmHg 83%
    09:00 +28°C° 0.1 mm 1 mps 724 mmHg 80%
    10:00 +29°C° 0.1 mm 1 mps 724 mmHg 78%
    11:00 +30°C° 1.4 mm 1 mps 724 mmHg 71%
    12:00 +32°C° 1.4 mm 1 mps 723 mmHg 65%
    13:00 +34°C° 1.4 mm 1 mps 723 mmHg 58%
    14:00 +34°C° 0.3 mm 1 mps 722 mmHg 56%
    15:00 +34°C° 0.3 mm 1 mps 722 mmHg 53%
    16:00 +35°C° 0.3 mm 2 mps 722 mmHg 51%
    17:00 +32°C° 0 mm 1 mps 722 mmHg 59%
    18:00 +30°C° 0 mm 1 mps 722 mmHg 67%
    19:00 +28°C° 0 mm 1 mps 722 mmHg 75%
    20:00 +28°C° 0 mm 1 mps 722 mmHg 77%
    21:00 +27°C° 0 mm 1 mps 723 mmHg 79%
    22:00 +25°C° 0 mm 0 mps 723 mmHg 81%
    23:00 +24°C° 0 mm 0 mps 723 mmHg 81%

    21 April, Sunday

    Time Temperature Precipitation Wind Pressure Humidity
    00:00 +26°C° 0 mm 1 mps 722 mmHg 81%
    01:00 +26°C° 0 mm 1 mps 722 mmHg 82%
    02:00 +26°C° 0.1 mm 1 mps 722 mmHg 83%
    03:00 +26°C° 0.1 mm 1 mps 722 mmHg 84%
    04:00 +26°C° 0.1 mm 1 mps 722 mmHg 84%
    05:00 +26°C° 0 mm 1 mps 722 mmHg 84%
    06:00 +26°C° 0 mm 1 mps 723 mmHg 83%
    07:00 +27°C° 0 mm 2 mps 723 mmHg 82%
    08:00 +29°C° 0.2 mm 1 mps 724 mmHg 75%
    09:00 +30°C° 0.2 mm 1 mps 724 mmHg 67%
    10:00 +32°C° 0.2 mm 1 mps 724 mmHg 60%
    11:00 +34°C° 0.3 mm 1 mps 724 mmHg 54%
    12:00 +34°C° 0.3 mm 0 mps 723 mmHg 48%
    13:00 +36°C° 0.3 mm 0 mps 722 mmHg 42%
    14:00 +35°C° 0 mm 0 mps 721 mmHg 43%
    15:00 +34°C° 0 mm 0 mps 721 mmHg 44%
    16:00 +33°C° 0 mm 0 mps 720 mmHg 46%
    17:00 +33°C° 0 mm 1 mps 720 mmHg 50%
    18:00 +32°C° 0 mm 1 mps 721 mmHg 55%
    19:00 +30°C° 0 mm 1 mps 721 mmHg 59%
    20:00 +30°C° 0 mm 1 mps 721 mmHg 61%
    21:00 +29°C° 0 mm 1 mps 722 mmHg 62%
    22:00 +29°C° 0 mm 1 mps 722 mmHg 64%
    23:00 +28°C° 0 mm 1 mps 721 mmHg 65%

    22 April, Monday

    Time Temperature Precipitation Wind Pressure Humidity
    00:00 +28°C° 0 mm 1 mps 721 mmHg 66%
    01:00 +28°C° 0 mm 1 mps 720 mmHg 67%
    02:00 +27°C° 0 mm 1 mps 720 mmHg 68%
    03:00 +27°C° 0 mm 1 mps 720 mmHg 69%
    04:00 +27°C° 0 mm 1 mps 720 mmHg 70%
    05:00 +27°C° 0 mm 1 mps 721 mmHg 70%
    06:00 +27°C° 0 mm 1 mps 722 mmHg 71%
    07:00 +28°C° 0 mm 2 mps 722 mmHg 72%
    08:00 +30°C° 0 mm 1 mps 722 mmHg 64%
    09:00 +33°C° 0 mm 1 mps 723 mmHg 56%
    10:00 +35°C° 0 mm 1 mps 723 mmHg 49%
    11:00 +35°C° 0 mm 1 mps 722 mmHg 47%
    12:00 +35°C° 0 mm 1 mps 721 mmHg 46%
    13:00 +36°C° 0 mm 1 mps 720 mmHg 44%
    14:00 +36°C° 0 mm 1 mps 720 mmHg 45%
    15:00 +36°C° 0 mm 1 mps 719 mmHg 45%
    16:00 +36°C° 0 mm 1 mps 719 mmHg 45%
    17:00 +34°C° 0 mm 1 mps 719 mmHg 49%
    18:00 +33°C° 0 mm 1 mps 720 mmHg 54%
    19:00 +31°C° 0 mm 1 mps 720 mmHg 58%
    20:00 +31°C° 0.1 mm 1 mps 721 mmHg 61%
    21:00 +30°C° 0.1 mm 1 mps 721 mmHg 63%
    22:00 +30°C° 0.1 mm 1 mps 721 mmHg 65%
    23:00 +29°C° 0.3 mm 2 mps 721 mmHg 71%

    23 April, Tuesday

    Time Temperature Precipitation Wind Pressure Humidity
    00:00 +28°C° 0.3 mm 2 mps 721 mmHg 77%
    01:00 +27°C° 0.3 mm 2 mps 720 mmHg 82%
    02:00 +27°C° 0 mm 2 mps 720 mmHg 83%
    03:00 +27°C° 0 mm 2 mps 720 mmHg 84%
    04:00 +26°C° 0 mm 2 mps 720 mmHg 85%
    05:00 +27°C° 0 mm 2 mps 721 mmHg 84%
    06:00 +27°C° 0 mm 2 mps 722 mmHg 82%
    07:00 +28°C° 0 mm 2 mps 722 mmHg 80%
    08:00 +30°C° 0 mm 2 mps 722 mmHg 71%
    09:00 +32°C° 0 mm 2 mps 723 mmHg 62%
    10:00 +35°C° 0 mm 2 mps 723 mmHg 53%
    11:00 +36°C° 0 mm 2 mps 722 mmHg 52%
    12:00 +35°C° 0 mm 1 mps 721 mmHg 51%
    13:00 +35°C° 0 mm 1 mps 721 mmHg 50%
    14:00 +35°C° 0 mm 1 mps 720 mmHg 50%
    15:00 +36°C° 0 mm 2 mps 720 mmHg 49%
    16:00 +37°C° 0 mm 2 mps 719 mmHg 48%
    17:00 +34°C° 0 mm 1 mps 720 mmHg 52%
    18:00 +33°C° 0 mm 1 mps 720 mmHg 56%
    19:00 +31°C° 0 mm 1 mps 721 mmHg 60%
    20:00 +31°C° 0 mm 1 mps 721 mmHg 62%
    21:00 +30°C° 0 mm 1 mps 721 mmHg 63%
    22:00 +30°C° 0 mm 1 mps 722 mmHg 65%
    23:00 +29°C° 0 mm 1 mps 721 mmHg 69%
    Show more